Showing default

QIANFAN-65, 62795

Orbit data source: Space-Track

QIANFAN-65, 62795 is a Chinese payload satellite in LEO that was launched on Thu, 23 Jan 2025 UTC via a CHANG ZHENG 6A launch vehicle from the Taiyaun Space Center, China (TSC). Payload-class satellites include a variety of spacecraft equipped with specific instruments for various scientific and technological missions. These include communications satellites like Starlink; space stations such as the ISS; scientific satellites like the Hubble; Earth observation satellites from companies like Planet Labs, Umbra, and HawkEye 360; GPS; miniature CubeSats for education and research; and military/defense satellites.

Loading next visibility...
Identifier
62795, 2025-016L
Orbit
LEO
Country
Flag of CNCN / PRC
Related business
Manufacturer
SECM
Mission
Operational Commercial Communications
Bus & Motor
QIANFAN, Unknown motor
Mass
267 kg wet, ~267 kg dry
Launch date (UTC)
2025-01-23 (2 years ago)
Launch vehicle
CHANG ZHENG 6A
Launch site
Taiyaun Space Center, China (TSC)
Object type
Payload
Rocket body
Debris
Shape & HBR
Box + 1 Pan, 5.0 m
Radar Cross Section
13.200 m², Large (>1 m²)

Expand to show TLE details & history
Last TLE update: 10 hours ago

TLE from 10 hours ago
0 QIANFAN-65
1 62795U 25016L   26257.54085694  .00000026  00000-0  22269-4 0  9999
2 62795  88.9652  74.3796 0012070 266.0869  93.8902 13.51023379 84481
Epoch: 2026-09-14T12:58Z
TLE epoch observation values (Epoch: 2026-09-14T12:58:50.039Z)
Latitude
-0.00006°
Longitude
-113.84858°
Altitude
1,072.07 km
Speed
7.316 km/s
True Right ascension
04h 57m 31s
True Declination
0° 00' 00"
Sunlit
Object was in daylight at epoch
Visualization orbit readout
Latitude
Unknown
Longitude
Unknown
Altitude
Unknown
Speed
Unknown
Apparent Right ascension
Unknown
Apparent Declination
Unknown
Sunlit
N/A
Visualization observer readout
Local Sidereal Time
15:36:15
Azimuth
Unknown
Elevation
Unknown
Doppler factor
Unknown
Orbital elements
Apogee altitude
1,074.531 km
Perigee altitude
1,056.562 km
Semi-major axis
7,443.684 km
Eccentricity
0.00121
Inclination
88.9652°
RAAN
74.3796°
Arg. of periapsis
266.0869°
True anomaly
94.02818°
Mean anomaly
93.8902°
Eccentric anomaly
93.95919°
Mean motion
3.37957 °/min
Orbital period
106.52 mins
BSTAR
0.000022269
Loading maneuver chart data...
Computing Atmospheric mass density...
Loading historical data...
Loading historical data...
Loading historical data...
Loading historical data...
Loading historical data...
Loading historical data...
Loading historical data...

Documentation

Showing up to 5 results
|